Regional Weather Roundup
Issued by NWS

Home | Current Version | Previous Version | Graphics & Text | Print | Product List | Glossary On
Versions: 1 2 3 4 5 6 7 8 9 10 11 12 13 14 15 16 17 18 19 20 21 22 23 24 25 26 27 28 29 30 31 32 33 34 35 36 37 38 39 40 41 42 43 44 45 46 47 48 49 50
335
ASUS45 KCYS 261210
RWRWY

WYOMING REGIONAL WEATHER ROUNDUP
NATIONAL WEATHER SERVICE CHEYENNE WY
600 AM MDT FRI AUG 26 2016

NOTE:  "FAIR" INDICATES FEW OR NO CLOUDS BELOW 12,000 FEET
WITH NO SIGNIFICANT WEATHER AND/OR OBSTRUCTIONS TO VISIBILITY.

WYZ001-261300-
YELLOWSTONE NATIONAL PARK

CITY           SKY/WX    TMP DP  RH WIND       PRES   REMARKS
LK YELLOWSTONE   N/A     41  38  89 CALM      30.29R
6HR MIN TEMP:  41; 6HR MAX TEMP:  46;

W YELLOWSTONE  NOT AVBL

$$
WYZ002>013-054>058-071-098>099-261300-
NORTHERN WYOMING

CITY           SKY/WX    TMP DP  RH WIND       PRES   REMARKS
JACKSON        FAIR      39  34  81 CALM      30.21S
CODY           FAIR      46  43  87 CALM      30.14F
GREYBULL       FAIR      52  48  86 CALM      30.11S
6HR MIN TEMP:  51; 6HR MAX TEMP:  61; 6HR PCP:  0.02;

WORLAND        FAIR      47  44  90 S8        30.11F
6HR MIN TEMP:  46; 6HR MAX TEMP:  53;

SHERIDAN       FAIR      48  42  80 SW3       30.10F
6HR MIN TEMP:  45; 6HR MAX TEMP:  54;

BUFFALO        FAIR      48  40  73 W7        30.13S
6HR MIN TEMP:  48; 6HR MAX TEMP:  55;

GILLETTE       FAIR      50  48  93 S9        30.12S
6HR MIN TEMP:  50; 6HR MAX TEMP:  56;

HULETT         FAIR      52  46  82 CALM      30.14F
NEWCASTLE      FAIR      52  45  76 E10G18    30.15S

$$
WYZ014>020-022>026-101>103-261300-
CENTRAL WYOMING

CITY           SKY/WX    TMP DP  RH WIND       PRES   REMARKS
BIG PINEY      FAIR      31  29  92 CALM      30.23F
6HR MIN TEMP:  30; 6HR MAX TEMP:  39;

PINEDALE       FAIR      30  28  93 CALM      30.25R
DUBOIS         CLOUDY    37  32  81 W10       30.22F WCI  30
LANDER         FAIR      45  38  76 W9        30.16F
6HR MIN TEMP:  42; 6HR MAX TEMP:  53;

RIVERTON       FAIR      45  43  93 NW13      30.17S
6HR MIN TEMP:  45; 6HR MAX TEMP:  51;

CASPER         FAIR      47  45  93 W10       30.14S
6HR MIN TEMP:  46; 6HR MAX TEMP:  52; 6HR PCP:  0.01;

DOUGLAS        FAIR      45  44  97 E7        30.15S
6HR MIN TEMP:  44; 6HR MAX TEMP:  54; 6HR PCP:  0.06;


$$
WYZ021-027>030-104>119-261300-
SOUTHERN WYOMING

CITY           SKY/WX    TMP DP  RH WIND       PRES   REMARKS
EVANSTON       MOCLDY    47  30  51 SE5       30.19F
6HR MIN TEMP:  46; 6HR MAX TEMP:  52;

FORT BRIDGER   MOSUNNY   41  32  70 W5        30.23S
ROCK SPRINGS   FAIR      46  37  71 SE8       30.19S
6HR MIN TEMP:  45; 6HR MAX TEMP:  51;

DIXON          FAIR      41  34  77 SE3       30.25S
RAWLINS        FAIR      44  37  76 SW5       30.21F
6HR MIN TEMP:  40; 6HR MAX TEMP:  49;

SARATOGA       FAIR      37  37 100 W5        30.25R WCI  34
LARAMIE        FAIR      43  40  89 NW7       30.23R
6HR MIN TEMP:  43; 6HR MAX TEMP:  50;

CHEYENNE       CLOUDY    51  47  86 E3        30.20R
6HR MIN TEMP:  51; 6HR MAX TEMP:  54;

TORRINGTON     FAIR      53  51  93 CALM      30.12F
6HR MIN TEMP:  53; 6HR MAX TEMP:  57; 6HR PCP:  0.02;

PINE BLUFFS    PTSUNNY   50  46  87 CALM      30.17F

$$




USA.gov is the U.S. government's official web portal to all federal, state and local government web resources and services.